This is the latest recevied weather packets stored in our database for station/object N5ATR. If no packets are shown the sender has not sent any weather packets the latest 10 day(s).
| Time | Temp. | Humidity | Pressure | Rain* | Wind** | Luminosity | Snow |
|---|---|---|---|---|---|---|---|
| 1777506102 | 20.56° C | 14% | 1013 hPa | 0 mm | - | 242 W/m² | - |
| 1777505798 | 19.44° C | 14% | 1013.2 hPa | 0 mm | - | 249 W/m² | - |
| 1777505495 | 19.44° C | 14% | 1013 hPa | 0 mm | - | 94 W/m² | - |
| 1777505191 | 20° C | 14% | 1013.2 hPa | 0 mm | - | 130 W/m² | - |
| 1777504888 | 20.56° C | 14% | 1013.2 hPa | 0 mm | - | 174 W/m² | - |
| 1777504585 | 20° C | 14% | 1013.4 hPa | 0 mm | - | 341 W/m² | - |
| 1777504280 | 19.44° C | 13% | 1013.3 hPa | 0 mm | - | 159 W/m² | - |
| 1777503977 | 19.44° C | 14% | 1013.4 hPa | 0 mm | - | 152 W/m² | - |
| 1777503674 | 21.11° C | 13% | 1013.2 hPa | 0 mm | - | 139 W/m² | - |
| 1777503370 | 21.11° C | 13% | 1013.3 hPa | 0 mm | - | 349 W/m² | - |
| 1777503066 | 21.11° C | 13% | 1013.5 hPa | 0 mm | - | 410 W/m² | - |
| 1777502764 | 21.11° C | 13% | 1013.4 hPa | 0 mm | - | 421 W/m² | - |
| 1777502460 | 21.67° C | 13% | 1013.2 hPa | 0 mm | - | 435 W/m² | - |
| 1777502158 | 21.11° C | 13% | 1013.3 hPa | 0 mm | - | 445 W/m² | - |
| 1777501855 | 21.11° C | 13% | 1013.7 hPa | 0 mm | - | 447 W/m² | - |
| 1777501552 | 21.11° C | 13% | 1013.3 hPa | 0 mm | - | 467 W/m² | - |
| 1777501249 | 21.11° C | 13% | 1013.3 hPa | 0 mm | - | 481 W/m² | - |
| 1777500947 | 21.67° C | 12% | 1014 hPa | 0 mm | - | 492 W/m² | - |
| 1777500644 | 20.56° C | 13% | 1013.7 hPa | 0 mm | - | 503 W/m² | - |
| 1777500341 | 21.11° C | 13% | 1013.8 hPa | 0 mm | - | 518 W/m² | - |
| 1777500037 | 21.11° C | 13% | 1013.8 hPa | 0 mm | - | 530 W/m² | - |
| 1777499733 | 20.56° C | 13% | 1013.8 hPa | 0 mm | - | 544 W/m² | - |
| 1777499430 | 20.56° C | 13% | 1013.9 hPa | 0 mm | - | 556 W/m² | - |
| 1777499129 | 20.56° C | 13% | 1014 hPa | 0 mm | - | 570 W/m² | - |
| 1777498825 | 20.56° C | 13% | 1014.3 hPa | 0 mm | - | 581 W/m² | - |
* Rain latest hour (hover to see other rain measurements)
** Current wind speed in m/s (hover to see current wind gust speed)